EDT,Max TemperatureF,Mean TemperatureF,Min TemperatureF,Max Dew PointF,MeanDew PointF,Min DewpointF,Max Humidity, Mean Humidity, Min Humidity, Max Sea Level PressureIn, Mean Sea Level PressureIn, Min Sea Level PressureIn, Max VisibilityMiles, Mean VisibilityMiles, Min VisibilityMiles, Max Wind SpeedMPH, Mean Wind SpeedMPH, Max Gust SpeedMPH,PrecipitationIn, CloudCover, Events, WindDirDegrees
2013-7-1,82,72,62,72,66,61,100,81,62,30.04,29.98,29.93,10,4,0,12,1,14,0.60,6,Fog-Rain,292
2013-7-2,86,78,70,72,69,67,97,81,65,30.16,30.09,30.03,10,9,5,14,3,18,0.02,7,Rain,180
2013-7-3,85,78,71,70,69,68,93,77,61,30.20,30.16,30.12,10,10,10,10,4,16,0.01,4,,213
2013-7-4,89,79,69,71,69,67,97,75,53,30.22,30.16,30.10,10,10,4,14,4,20,0.00,2,,217
2013-7-5,90,80,70,73,71,66,93,74,55,30.19,30.11,30.04,10,9,1,16,3,21,0.39,5,Rain-Thunderstorm,181
2013-7-6,84,75,65,70,67,61,100,74,47,30.14,30.10,30.03,10,7,1,13,3,20,0.00,4,,277
2013-7-7,89,76,63,75,70,61,93,73,53,30.07,29.99,29.94,10,6,2,12,1,14,0.17,3,Rain-Thunderstorm,226
2013-7-8,83,76,69,72,69,66,93,76,58,30.04,29.99,29.94,10,8,2,10,3,29,T,6,Rain,241
2013-7-9,85,76,67,69,67,65,100,78,55,30.10,30.05,30.00,10,8,3,20,3,26,0.00,3,Thunderstorm,105
2013-7-10,84,77,69,72,69,67,100,83,65,30.00,29.86,29.79,10,5,0,25,4,31,1.11,4,Fog-Rain-Thunderstorm,190
2013-7-11,80,72,63,68,65,57,97,74,51,29.99,29.85,29.78,10,7,1,12,3,17,T,3,Rain,260
2013-7-12,83,71,58,61,58,55,93,70,46,30.18,30.10,30.00,10,10,7,10,2,15,0.00,2,,94
2013-7-13,78,72,66,69,63,52,93,71,49,30.31,30.27,30.19,10,10,5,12,4,17,0.01,6,Rain,116
2013-7-14,88,77,65,73,68,64,100,79,57,30.35,30.30,30.23,10,9,4,8,1,23,0.00,5,,289
2013-7-15,89,77,64,70,67,63,100,75,50,30.26,30.23,30.15,10,5,0,9,2,23,0.00,2,Fog,277
2013-7-16,88,76,63,72,65,61,93,71,48,30.24,30.21,30.17,10,7,2,12,2,16,0.00,0,,330
2013-7-17,90,77,64,72,67,63,93,70,47,30.23,30.16,30.04,10,8,2,12,2,15,0.00,1,,251
2013-7-18,89,80,70,73,71,69,100,76,52,30.08,30.03,29.96,10,8,2,14,3,18,T,2,,230
2013-7-19,92,80,68,73,69,63,97,72,47,29.96,29.85,29.73,10,8,2,21,4,38,0.18,3,Rain-Thunderstorm,247
2013-7-20,84,73,62,70,65,60,100,78,55,29.87,29.77,29.72,10,7,2,16,3,26,0.06,3,Rain,230
2013-7-21,81,69,57,66,60,55,100,76,51,30.00,29.94,29.88,10,7,0,9,2,21,0.00,1,Fog,187
2013-7-22,84,73,62,68,63,60,93,71,48,30.03,29.95,29.83,10,9,2,10,2,17,0.17,5,Rain,136
2013-7-23,79,72,64,69,67,63,100,84,67,29.82,29.68,29.57,10,6,0,10,2,15,2.58,7,Fog-Rain,310
2013-7-24,76,63,50,65,60,49,93,73,53,30.03,29.73,29.62,10,7,1,14,4,21,0.00,5,,273
2013-7-25,72,59,46,58,51,44,93,75,57,30.10,30.07,30.02,10,10,5,7,2,26,0.00,0,,317
2013-7-26,73,64,54,59,56,54,93,75,57,30.07,30.05,30.02,10,10,5,9,2,13,0.00,1,,286
2013-7-27,81,66,50,64,56,48,96,71,45,30.06,30.03,29.96,10,8,2,9,2,21,0.00,0,,0
2013-7-28,75,69,63,68,64,58,93,79,64,30.00,29.97,29.94,10,8,1,13,3,23,0.30,6,Rain,138
2013-7-29,78,67,56,64,62,53,100,77,54,30.11,30.02,29.96,10,6,0,10,3,21,0.00,5,Fog,273
2013-7-30,76,64,51,58,55,50,96,73,50,30.18,30.13,30.09,10,10,7,10,3,24,0.00,4,,257
2013-7-31,78,65,51,63,56,50,100,72,43,30.17,30.11,30.04,10,10,9,8,2,17,0.00,0,,277